SCP
1 1 1 1 1 1 1 1 1 1 1 1 1 1 0 0 0 0 0 0 0 0 0 0 0 0 0 0 0 0 0 0 0 0 0 0 0 0 0 0 0 0 0
1 1 1 1 1 1 1 1 1 1 1 1 1 1 1 0 0 0 0 0 0 0 0 0 0 0 0 0 0 0 0 0 0 0 0 0 0 0 0 0 0 0 0
1 1 1 1 1 1 1 1 1 1 1 1 0 0 0 0 0 0 0 0 0 0 0 0 0 0 0 0 0 0 0 0 0 0 0 0 0 0 0 0 0 0 0
1 1 1 1 1 1 1 1 1 1 1 1 0 0 0 0 0 0 0 0 0 0 0 0 0 0 0 0 0 0 0 0 0 0 0 0 0 0 0 0 0 0 0
1 1 1 1 1 1 1 0 0 0 0 0 0 0 0 0 0 0 0 0 0 0 0 0 0 0 0 0 0 0 0 0 0 0 0 0 0 0 0 0 0 0 0
1 1 1 1 1 1 0 0 0 0 0 0 0 0 0 0 0 0 0 0 0 0 0 0 0 0 0 0 0 0 0 0 0 0 0 0 0 0 0 0 0 0 0
1 1 1 1 0 0 0 0 0 0 0 0 0 0 0 0 0 0 0 0 0 0 0 0 0 0 0 0 0 0 0 0 0 0 0 0 0 0 0 0 0 0 0
0 0 1 0 0 0 0 0 0 0 0 0 0 0 0 0 0 0 0 0 0 0 0 0 0 0 0 0 0 0 0 0 0 0 0 0 0 0 0 0 0 0 0
0 0 0 0 0 0 0 0 0 0 0 0 0 0 0 0 0 0 0 0 0 0 0 0 0 0 0 0 0 0 0 0 0 0 0 0 0 0 0 0 0 0 0
0 0 0 0 0 0 0 0 0 0 0 0 0 0 0 0 0 0 0 0 0 0 0 0 0 0 0 0 0 0 0 0 0 0 0 0 0 0 0 0 0 0 0
0 0 0 1 1 0 0 0 0 0 0 0 0 0 0 0 0 0 0 0 0 0 0 0 0 0 0 0 0 0 0 0 0 0 0 0 0 0 0 0 0 0 0
0 0 0 1 0 0 0 0 0 0 0 0 0 0 0 0 0 0 0 0 0 0 0 0 0 0 0 0 0 0 0 0 0 0 0 0 0 0 0 0 0 0 0
0 0 0 0 0 0 0 0 0 0 0 0 0 0 0 0 0 0 0 0 0 0 0 0 0 0 0 0 0 0 0 0 0 0 0 0 0 0 0 0 0 0 0
0 0 0 0 0 0 0 0 0 0 0 0 0 0 0 0 0 0 0 0 0 0 0 0 0 0 0 0 0 0 0 0 0 0 0 0 0 0 0 0 0 0 0
0 0 0 0 0 0 0 0 0 0 0 0 0 0 0 0 0 0 0 0 0 0 0 0 0 0 0 0 0 0 0 0 0 0 0 0 0 0 0 0 0 0 0
0 0 0 0 0 0 0 0 0 0 0 0 0 0 0 0 0 0 0 0 0 0 0 0 0 0 0 0 0 0 0 0 0 0 0 0 0 0 0 0 0 0 0
1 0 0 0 0 0 0 0 0 0 0 0 0 0 0 0 0 0 0 0 0 0 0 0 0 0 0 0 0 0 0 0 0 0 0 0 0 0 0 0 0 0 0
1 1 0 0 0 0 0 0 0 0 0 0 0 0 0 0 0 0 0 0 0 0 0 0 0 0 0 0 0 0 0 0 0 0 0 0 0 0 0 0 0 0 0
1 1 0 0 0 0 0 0 0 0 0 0 0 0 0 0 0 0 0 0 0 0 0 0 0 0 0 0 0 0 0 0 0 0 0 0 0 0 0 0 0 0 0
1 1 0 0 0 1 0 0 0 0 0 0 0 0 0 0 0 0 0 0 0 0 0 0 0 0 0 0 0 0 0 0 0 0 0 0 0 0 0 0 0 0 0
0 0 0 0 1 1 1 1 1 0 0 0 0 0 0 0 0 0 0 0 0 0 0 0 0 0 0 0 0 0 0 0 0 0 0 0 0 0 0 0 0 0 0
0 0 0 0 0 1 1 1 1 1 1 1 0 0 0 0 0 0 0 0 0 0 0 0 0 0 0 0 0 0 0 0 0 0 0 0 0 0 0 0 0 0 0
0 0 0 0 0 0 0 0 0 1 1 1 0 0 0 0 0 0 0 0 0 0 0 0 0 0 0 0 0 0 0 0 0 0 0 0 0 0 0 0 0 0 0
0 0 0 0 0 0 0 0 0 0 0 0 0 0 0 0 0 0 0 0 0 0 0 0 0 0 0 0 0 0 0 0 0 0 0 0 0 0 0 0 0 0 0
0 0 0 0 0 0 0 0 0 0 0 0 0 0 0 0 0 0 0 0 0 0 0 0 0 0 0 0 0 0 0 0 0 0 0 0 0 0 0 0 0 0 0
0 0 0 0 0 0 0 0 0 0 0 0 0 0 0 0 0 0 0 0 0 0 0 0 0 0 0 0 0 0 0 0 0 0 0 0 0 0 0 0 0 0 0
Wind_Speed
9 10 11 12 12 13 14 15 14 13 11 8 8 8 8 7 7 7 8 8 7 8 7 5 6 6 5 4 5 4 5 4 3 3 3 4 5 4 4 4 4 5 5
8 10 11 12 13 14 14 14 14 14 13 9 7 6 6 6 7 6 7 8 8 8 8 7 6 6 4 5 5 5 4 3 4 4 3 3 5 5 5 4 5 5 5
8 9 11 12 12 13 14 13 14 13 13 11 8 6 5 5 6 7 7 8 8 9 7 7 7 5 6 6 6 6 6 5 4 4 3 3 2 3 5 5 5 5 4
7 9 10 11 12 12 12 13 12 12 12 12 11 11 9 9 9 8 6 7 8 8 8 7 7 6 6 5 7 7 5 5 5 4 4 4 3 3 2 5 5 6 6
6 7 9 10 10 11 11 11 11 12 12 12 12 12 10 9 7 7 8 7 7 8 8 7 6 6 6 6 6 5 6 5 6 4 4 4 3 5 4 2 3 4 5
6 6 7 8 9 9 9 10 11 11 12 12 13 13 13 11 10 10 9 8 6 6 8 8 7 7 6 6 6 6 7 6 5 5 4 4 4 4 4 3 3 3 3
6 7 8 9 9 9 9 9 10 11 12 12 12 13 12 12 12 11 9 8 6 6 8 8 7 6 6 7 6 6 6 6 6 6 5 4 4 3 3 4 3 2 3
7 7 7 7 8 8 9 9 9 9 10 11 11 10 11 9 8 10 8 8 6 6 7 8 7 8 8 8 6 6 6 5 6 6 5 4 4 4 4 4 3 3 4
7 7 7 7 6 7 7 7 8 8 9 10 10 9 10 9 8 8 8 7 5 5 7 8 8 8 8 7 7 5 6 5 6 6 7 6 3 4 4 4 4 4 4
7 7 6 6 6 5 6 6 7 7 7 8 8 8 9 9 8 7 7 6 6 6 7 8 8 7 7 7 7 6 6 5 5 4 4 4 4 3 3 3 3 4 5
7 7 6 6 6 6 6 6 6 6 6 7 8 8 8 8 8 7 6 6 6 7 7 7 7 7 7 7 7 6 6 7 6 5 5 5 3 2 3 2 3 3 4
7 7 7 6 6 6 6 6 6 6 6 6 7 7 6 7 6 6 6 6 6 6 6 6 6 7 6 6 7 7 6 6 6 6 5 5 4 3 3 2 3 2 3
7 7 7 6 6 6 6 6 6 6 6 6 6 7 7 7 6 6 6 6 5 5 6 6 6 6 6 5 5 5 4 4 3 3 3 3 3 2 1 1 2 2 2
7 7 7 6 6 6 6 6 6 6 6 6 6 6 6 6 6 6 6 6 5 5 5 5 5 5 5 5 5 5 4 3 3 2 2 2 2 1 1 1 1 1 1
8 7 7 6 6 6 6 6 6 6 6 7 7 6 6 6 6 6 6 5 5 6 5 5 5 4 4 4 5 5 6 6 6 7 8 9 11 12 8 4 3 3 2
7 7 7 7 7 7 6 6 6 6 6 7 7 7 7 6 6 6 6 6 6 5 6 6 5 5 3 7 8 6 7 7 8 8 8 9 11 14 16 16 15 11 6
6 6 7 6 6 6 6 7 6 7 7 7 7 7 7 7 7 7 7 7 7 7 7 6 7 7 9 11 11 11 8 9 8 8 7 7 8 9 9 12 14 15 16
5 5 5 5 5 6 6 6 7 7 7 7 7 7 7 8 7 7 7 7 7 7 7 7 9 9 10 12 13 13 11 10 10 9 8 8 8 8 8 9 10 10 10
4 4 4 5 5 5 6 7 7 7 7 6 7 7 8 8 8 8 8 7 8 8 8 8 9 10 10 12 12 11 10 10 11 9 9 8 9 9 8 9 9 9 9
4 3 3 4 5 5 6 7 7 7 7 7 7 7 8 9 9 9 9 9 9 10 9 10 9 10 10 10 10 10 8 10 9 9 10 12 11 9 8 7 8 8 7
4 4 4 4 4 4 6 6 6 6 6 7 7 8 8 9 10 10 10 11 10 11 11 11 11 10 11 11 10 9 8 9 9 8 8 8 11 11 10 8 8 6 4
4 4 4 4 4 4 5 6 6 5 6 8 9 9 8 8 9 11 11 11 12 13 12 11 11 9 9 10 11 11 10 9 10 8 8 9 11 11 10 9 7 3 1
4 4 5 5 4 4 4 5 5 6 8 8 9 10 10 9 9 10 11 10 9 9 10 9 10 9 8 10 14 14 14 13 10 10 13 11 10 10 10 9 4 2 4
4 4 5 5 5 4 5 5 6 7 9 10 10 10 11 11 10 8 8 8 8 9 9 9 10 9 8 7 8 9 11 13 12 11 12 10 8 7 7 5 4 5 6
4 4 5 5 5 6 6 6 6 8 10 11 11 11 11 11 11 10 9 8 7 6 8 9 9 9 9 7 7 7 8 8 8 8 7 6 6 6 5 5 5 4 4
5 5 6 6 6 7 7 6 6 8 11 11 11 9 10 10 11 12 12 18 15 17 16 12 10 11 12 12 12 12 11 9 6 5 6 6 5 5 5 4 4 4 5
Wind_Direction
183 183 188 186 183 182 185 186 187 185 183 182 187 188 190 193 198 202 196 200 208 201 210 217 189 214 211 210 206 207 192 210 201 215 200 197 204 203 197 210 208 197 202
180 179 183 185 187 185 187 188 190 188 188 188 190 193 188 191 196 203 195 203 208 208 206 212 212 206 206 208 213 217 226 207 205 236 231 212 189 203 200 194 207 214 206
184 181 185 188 189 190 191 192 194 191 192 186 183 181 178 192 195 200 199 204 209 210 216 208 219 210 216 203 209 211 220 223 209 234 258 257 228 177 178 202 204 203 215
186 183 187 189 191 191 189 193 196 196 193 188 189 189 194 199 200 199 194 196 207 210 210 214 214 215 222 205 213 208 223 228 225 207 243 286 333 282 186 189 192 197 210
184 182 184 186 186 186 186 188 194 197 197 194 194 198 204 206 201 197 191 199 201 207 210 209 212 213 223 215 227 204 229 227 234 226 215 217 226 252 271 219 188 188 197
172 168 167 170 175 180 183 186 190 194 195 198 200 203 205 203 199 199 195 199 199 205 206 209 210 214 219 210 217 218 218 237 242 250 239 230 232 234 243 237 217 200 172
164 161 162 166 172 177 182 189 193 197 196 200 205 207 207 206 204 201 201 202 201 204 201 206 203 210 213 213 214 215 229 221 221 231 237 242 253 262 259 265 252 226 179
156 155 157 162 168 176 182 189 195 198 198 201 206 207 205 206 206 204 206 204 208 207 197 200 202 208 210 210 206 217 215 216 219 228 239 244 241 250 250 260 265 247 219
151 151 152 156 160 173 181 188 189 191 194 198 198 198 202 206 204 198 204 205 206 204 197 197 202 208 209 209 205 219 219 213 219 220 213 233 229 240 249 257 266 270 266
151 151 153 152 154 160 166 178 181 185 190 191 195 191 194 196 197 200 199 200 202 204 196 200 202 201 202 204 207 212 208 213 218 235 236 237 236 232 235 247 258 273 281
153 151 150 146 148 153 160 169 177 181 186 187 189 188 188 190 190 193 193 192 195 190 192 194 195 197 199 199 201 213 202 211 209 213 212 216 244 232 233 237 252 260 269
148 147 147 148 153 158 160 166 174 179 182 181 180 178 180 181 181 183 181 180 182 184 184 185 189 193 194 193 196 204 203 206 209 213 213 209 200 203 243 244 249 260 279
148 149 151 155 158 160 162 167 170 169 170 171 171 170 171 172 172 170 165 167 168 174 176 180 184 187 183 181 184 186 189 195 197 196 199 206 203 206 213 267 274 278 266
154 159 158 160 161 163 161 166 163 159 157 159 159 159 163 163 160 158 157 160 162 165 168 172 176 175 167 166 168 163 155 140 113 93 87 75 79 84 85 63 12 344 331
160 167 166 163 165 166 164 165 160 155 152 151 151 150 151 150 148 146 145 146 151 155 151 148 151 152 157 159 154 148 137 125 107 88 77 71 70 62 56 55 51 42 37
162 167 166 165 168 171 170 166 162 154 152 150 149 146 144 144 139 136 136 135 132 131 129 131 129 123 113 98 105 119 118 112 108 101 95 88 82 79 73 67 59 52 56
155 161 163 166 169 172 169 166 160 155 155 151 149 145 140 136 134 133 130 130 126 121 116 112 108 99 91 96 100 102 107 103 101 101 100 95 90 91 92 83 76 66 58
142 147 155 161 164 161 159 158 153 155 154 153 150 143 138 133 130 125 123 121 119 115 109 103 100 96 93 96 101 103 102 97 92 90 92 95 90 84 87 89 82 73 61
116 129 141 146 146 148 150 151 151 150 152 156 153 147 143 139 133 127 123 120 114 107 102 100 99 100 97 95 102 107 106 100 93 89 84 90 92 76 83 94 93 89 86
95 111 126 133 133 139 149 151 152 152 156 157 152 147 144 140 136 130 124 117 112 109 107 102 99 101 100 91 95 104 108 106 101 92 84 75 78 68 67 92 95 91 85
90 106 117 119 122 138 152 153 147 149 148 143 138 134 134 134 129 122 121 119 114 109 104 99 93 90 91 89 85 92 107 111 108 102 95 83 76 71 67 74 82 80 82
97 107 112 110 109 125 143 145 142 137 131 129 126 123 123 121 121 121 120 120 119 114 108 104 98 89 85 84 84 84 90 100 105 101 98 95 88 80 72 75 75 66 44
100 107 114 111 104 111 134 135 132 128 124 120 118 115 109 105 111 117 120 119 118 116 114 112 107 101 96 91 87 87 87 87 93 95 99 102 106 105 90 82 66 54 56
95 104 110 111 103 97 99 108 116 121 121 120 116 113 110 104 97 98 103 108 114 118 119 116 113 110 107 108 110 108 105 106 106 108 111 108 94 95 101 110 81 59 47
90 99 105 104 102 101 97 98 110 122 123 120 116 112 107 104 93 80 71 84 78 91 113 115 117 120 115 103 99 112 113 114 114 125 126 120 115 104 91 79 66 56 52
97 101 101 98 94 96 95 96 109 124 123 118 115 113 111 107 105 100 84 62 71 70 70 79 99 96 99 104 94 89 91 98 121 127 112 106 99 91 85 79 71 58 43